Location: Mentone
(34.5413°N, 85.5351°W)
Time: 09:07:18
(UTC-06:00)

Vanguard 1 - Visible Passes

Search period start: 13 February 2016 00:00
Search period end: 23 February 2016 00:00
Orbit: 650 x 3834 km, 34.2° (Epoch: 13 February)

Date Brightness Start Highest point End Pass type
(mag) Time Alt. Az. Time Alt. Az. Time Alt. Az.
13 Feb 11.1 03:34:24 54° SSE 03:34:24 54° SSE 03:44:19 10° ESE visible
13 Feb 12.3 05:47:21 10° W 05:55:08 29° SSW 06:07:31 10° SSE visible
14 Feb 11.1 03:54:30 48° SSW 03:54:30 48° SSW 04:05:29 10° SE visible
15 Feb 13.0 02:01:52 12° ESE 02:01:52 12° ESE 02:02:35 10° ESE visible
15 Feb 11.3 04:14:37 37° SW 04:15:27 38° SSW 04:26:20 10° SE visible
16 Feb 12.7 02:22:01 16° ESE 02:22:01 16° ESE 02:23:57 10° ESE visible
16 Feb 11.6 04:34:45 27° SW 04:36:44 29° SSW 04:46:46 10° SSE visible
16 Feb 11.9 19:32:51 10° S 19:35:01 14° S 19:35:01 14° S visible
17 Feb 12.4 02:42:10 20° SE 02:42:10 20° SE 02:45:10 10° SE visible
17 Feb 12.0 04:54:55 18° SW 04:58:05 22° SSW 05:06:36 10° SSE visible
17 Feb 11.8 19:52:33 10° SSW 19:55:14 18° S 19:55:14 18° S visible
18 Feb 12.3 03:02:22 22° SSE 03:02:22 22° SSE 03:06:07 10° SE visible
18 Feb 12.4 05:15:06 10° WSW 05:19:30 15° SSW 05:25:27 10° S visible
18 Feb 11.8 20:12:55 10° SW 20:15:27 20° SSW 20:15:27 20° SSW visible
19 Feb 12.2 03:22:33 22° SSE 03:22:33 22° SSE 03:26:42 10° SE visible
19 Feb 11.9 18:14:22 10° S 18:18:59 15° SSE 18:22:34 10° ESE visible
19 Feb 12.0 20:33:41 10° SW 20:35:41 18° SW 20:35:41 18° SW visible
20 Feb 12.2 03:42:46 19° S 03:42:46 19° S 03:46:49 10° SSE visible
20 Feb 11.4 18:33:47 10° SSW 18:40:14 22° SSE 18:43:08 16° ESE visible
20 Feb 12.3 20:54:41 10° WSW 20:55:53 15° WSW 20:55:53 15° WSW visible
21 Feb 12.4 04:02:59 14° SSW 04:02:59 14° SSW 04:06:03 10° S visible
21 Feb 11.0 18:53:59 10° SW 19:01:26 31° SSE 19:03:19 26° SE visible
21 Feb 12.6 21:15:52 10° WSW 21:16:04 11° WSW 21:16:04 11° WSW visible
22 Feb 10.5 19:14:38 10° SW 19:22:35 41° SSE 19:23:30 39° SE visible
